Location: Usti nad Labem
(50.6670°N, 14.0330°E)
Time: 22:21:02
(UTC+01:00)

Envisat - Pass Details

Date: 11 December 2020
Orbit: 764 x 766 km, 98.1° (Epoch: 15 January)

Event Time Altitude Azimuth Distance (km) Brightness Sun altitude
Rises 18:04:38 0° 201° (SSW) 3,222 6.7 -18.7°
Reaches altitude 10° 18:07:22 10° 216° (SW) 2,301 6.1 -19.2°
Maximum altitude 18:11:25 24° 269° (W) 1,563 5.4 -19.8°
Drops below altitude 10° 18:15:29 10° 322° (NW) 2,314 5.8 -20.4°
Sets 18:18:15 0° 336° (NNW) 3,246 6.4 -20.9°
